Palmer, AK

7:55 PM AKDT on May 24, 2018 (GMT -0800)
Palmer Municipal

Weather History for PAAQ - September, 2013

Change the Weather History Date:

Saturday, September 14, 2013

  Actual Average Record
Temperature  
Mean Temperature 49 °F -  
Max Temperature 60 °F 57 °F 66 °F (1956)
Min Temperature 39 °F 40 °F 25 °F (1987)
Degree Days  
Heating Degree Days 16    
Moisture  
Dew Point 44 °F    
Average Humidity 83    
Maximum Humidity 97    
Minimum Humidity 62    
Precipitation  
Precipitation 0.00 in - - ()
Sea Level Pressure  
Sea Level Pressure 29.89 in    
Wind  
Wind Speed 5 mph (NNE)    
Max Wind Speed 10 mph    
Max Gust Speed -    
Visibility 10 miles    
Events      
Averages and records for this station are not official NWS values.
T = Trace of Precipitation, MM = Missing Value Source: NWS Daily Summary

Daily Weather History Graph

Daily Weather History Graph

Search for Another Location

Airport or City:

Astronomy

Sep. 14, 2013 Rise Set
Actual Time 7:21 AM AKDT 8:20 PM AKDT
Civil Twilight 6:36 AM AKDT 9:05 PM AKDT
Nautical Twilight 5:40 AM AKDT 10:00 PM AKDT
Astronomical Twilight 4:35 AM AKDT 11:04 PM AKDT
Moon 6:13 PM AKDT (9/14) 12:49 AM AKDT (9/14)
Length of Visible Light 14h 28m
Length of Day
12h 59m
Waxing Gibbous, 74% of the Moon is Illuminated
Sep 14
Waxing Gibbous
Sep 19
Full
Sep 26
Last Quarter
Oct 4
New
Oct 11
First Quarter

Hourly Weather History & Observations

Time (AKDT) Temp. Windchill Dew Point Humidity Pressure Visibility Wind Dir Wind Speed Gust Speed Precip Events Conditions
12:53 AM 46.9 °F - 45.0 °F 93% 29.94 in 10.0 mi North 6.9 mph - N/A   Clear
1:53 AM 46.0 °F 42.5 °F 44.1 °F 93% 29.94 in 10.0 mi North 6.9 mph - N/A   Clear
2:53 AM 46.0 °F 43.9 °F 43.0 °F 89% 29.93 in 10.0 mi North 4.6 mph - N/A   Clear
3:53 AM 44.1 °F 41.5 °F 42.1 °F 93% 29.93 in 10.0 mi North 4.6 mph - N/A   Clear
4:53 AM 42.1 °F 39.2 °F 41.0 °F 96% 29.93 in 10.0 mi North 4.6 mph - N/A   Clear
5:53 AM 41.0 °F 38.0 °F 39.0 °F 93% 29.92 in 10.0 mi North 4.6 mph - N/A   Clear
6:53 AM 41.0 °F 39.0 °F 39.0 °F 93% 29.91 in 10.0 mi North 3.5 mph - N/A   Clear
7:53 AM 42.1 °F 38.4 °F 39.9 °F 92% 29.90 in 10.0 mi North 5.8 mph - N/A   Clear
8:53 AM 39.9 °F - 39.0 °F 97% 29.90 in 10.0 mi Calm Calm - N/A   Clear
9:53 AM 44.1 °F 42.5 °F 42.1 °F 93% 29.90 in 10.0 mi SE 3.5 mph - N/A   Clear
10:53 AM 46.9 °F - 43.0 °F 86% 29.90 in 10.0 mi Calm Calm - N/A   Clear
11:53 AM 51.1 °F - 46.0 °F 83% 29.89 in 10.0 mi South 3.5 mph - N/A   Clear
12:53 PM 53.1 °F - 45.0 °F 74% 29.89 in 10.0 mi Calm Calm - N/A   Clear
1:53 PM 55.0 °F - 46.9 °F 74% 29.87 in 10.0 mi South 4.6 mph - N/A   Scattered Clouds
2:53 PM 57.0 °F - 46.0 °F 67% 29.86 in 10.0 mi Calm Calm - N/A   Scattered Clouds
3:53 PM 59.0 °F - 48.0 °F 67% 29.86 in 10.0 mi Calm Calm - N/A   Scattered Clouds
4:53 PM 59.0 °F - 48.0 °F 67% 29.86 in 10.0 mi SE 6.9 mph - N/A   Scattered Clouds
5:53 PM 59.0 °F - 46.0 °F 62% 29.85 in 10.0 mi SSE 6.9 mph - N/A   Scattered Clouds
6:53 PM 57.9 °F - 46.0 °F 65% 29.86 in 10.0 mi SE 10.4 mph - N/A   Mostly Cloudy
7:53 PM 54.0 °F - 44.1 °F 69% 29.86 in 10.0 mi ESE 4.6 mph - N/A   Mostly Cloudy
8:53 PM 50.0 °F - 43.0 °F 77% 29.87 in 10.0 mi North 4.6 mph - N/A   Scattered Clouds
9:53 PM 48.9 °F - 46.9 °F 93% 29.88 in 10.0 mi NNW 6.9 mph - N/A   Clear
10:53 PM 46.9 °F - 45.0 °F 93% 29.89 in 10.0 mi North 4.6 mph - N/A   Clear
11:53 PM 46.0 °F 43.9 °F 44.1 °F 93% 29.89 in 10.0 mi NNW 4.6 mph - N/A   Clear